Regional Weather Roundup
Issued by NWS

Home | Current Version | Previous Version | Graphics & Text | Print | Product List | Glossary On
Versions: 1 2 3 4 5 6 7 8 9 10 11 12 13 14 15 16 17 18 19 20 21 22 23 24 25 26 27
000
ASUS45 KSLC 280510
RWRUT

UTAH REGIONAL WEATHER ROUNDUP
NATIONAL WEATHER SERVICE SALT LAKE CITY UT
1100 PM MDT THU APR 27 2017

UTZ001>011-023>025-280600-

NORTHERN UTAH

CITY           SKY/WX    TMP DP  RH WIND       PRES   REMARKS
BRIGHAM CITY   PTCLDY    40  23  49 N12       29.87F WCI  33
HILL AFB       PTCLDY    38  27  63 N8        29.86R WCI  32
LOGAN          PTCLDY    35  25  66 N7        29.87R WCI  29
OGDEN          CLOUDY    38  28  67 NW9       29.86S WCI  31
SALT LAKE CITY MOCLDY    40  32  73 SW6       29.86R
TOOELE VALLEY  MOCLDY    39  28  65 W9        29.90R WCI  33
WENDOVER       CLEAR     43  18  36 NW10      29.92R
HEBER CITY     CLOUDY    32  28  86 SE5       29.85S WCI  27
WEST JORDAN    PTCLDY    42  35  76 CALM      29.88R

$$

UTZ011>015-024>027-280600-

CENTRAL/NORTHEAST UTAH

CITY           SKY/WX    TMP DP  RH WIND       PRES   REMARKS
PROVO AIRPORT  MOCLDY    44  23  43 NW20G26   29.88R
MOAB/CANYONLAN CLEAR     46  19  34 NW14      29.76R
DELTA          PTCLDY    36  30  80 N9        29.90R WCI  29
PRICE          CLEAR     35  21  56 N8        29.82R WCI  29
RICHFIELD      MOCLDY    37  36  93 N7        29.92R WCI  32
ROOSEVELT      CLEAR     36  18  48 SW10      29.80R WCI  28
VERNAL         CLOUDY    39  19  44 SW9       29.76R WCI  33

$$

UTZ013>016-019>022-027-280600-

SOUTHERN UTAH

CITY           SKY/WX    TMP DP  RH WIND       PRES   REMARKS
BRYCE CANYON   PTCLDY    32  22  66 N14       29.85R WCI  22
CEDAR CITY     CLEAR     41  26  55 NE13      29.85R
MILFORD        MOCLDY    40  29  64 N8        29.88R WCI  34
ST GEORGE      MOCLDY    62  24  23 NE16      29.73R
HANKSVILLE     CLEAR     45  23  42 W7        29.82S
KANAB          PTCLDY    52  23  32 N15       29.80R
BLANDING       MOCLDY    43  15  31 N16       29.84F

$$

REGIONAL REPORTS     COLORADO/ARIZONA

CITY           SKY/WX    TMP DP  RH WIND       PRES   REMARKS
CRAIG, CO      CLOUDY    34  25  69 SW10      29.78R WCI  26
GRAND JUNCTION CLOUDY    43  27  53 N8        29.76R
RIFLE, CO      CLOUDY    36  29  75 CALM      29.79R
MONTROSE, CO   CLEAR     41  19  41 CALM      29.79S
CORTEZ, CO     CLOUDY    43  19  38 NW7       29.78R
COLORADO CITY    N/A     54  21  28 NW10      29.80R
PAGE, AZ       MOCLDY    59  22  24 CALM      29.72S
GRAND CANYON   CLOUDY    51  17  26 SW8       29.82R
KINGMAN, AZ    CLEAR     57  26  30 SW5       29.70S
FLAGSTAFF, AZ  MOCLDY    52  19  27 W14G22    29.83S

$$

REGIONAL REPORTS    NEVADA/IDAHO/WYOMING

CITY           SKY/WX    TMP DP  RH WIND       PRES   REMARKS
LAS VEGAS, NV  PTCLDY    73   4   7 N26G35    29.67R
ELY, NY        CLEAR     31  16  54 W9        29.94R WCI  23
ELKO, NV       CLEAR     35  23  61 NW7       29.96R WCI  29
POCATELLO, ID  CLOUDY    38  23  55 SW21      29.86R WCI  28
BURLEY, ID     CLEAR     35  22  58 SW16      29.88S WCI  25
EVANSTON, WY   CLOUDY    27  24  89 SW8       29.83S WCI  19
ROCK SPRINGS,  CLOUDY    32  22  66 W23       29.76R WCI  19

$$




USA.gov is the U.S. government's official web portal to all federal, state and local government web resources and services.